Regional Weather Roundup
Issued by NWS Charleston, WV

Home | Current Version | Previous Version | Graphics & Text | Print | Product List | Glossary On
Versions: 1 2 3 4 5 6 7 8 9 10 11 12 13 14 15 16 17 18 19 20 21 22 23 24 25 26 27 28 29 30 31 32 33 34 35 36 37 38 39 40 41 42 43 44 45 46 47 48 49 50
471
ASUS41 KRLX 260610
RWRRLX
West Virginia Regional Weather Roundup
National Weather Service Charleston WV
200 AM EDT MON JUN 26 2017

Note: "fair" indicates few or no clouds below 12,000 feet with no
significant weather and/or obstructions to visibility.

WVZ003-260700-
Northern Panhandle of West Virginia

CITY           SKY/WX    TMP DP  RH WIND       PRES   REMARKS
WHEELING       CLEAR     57  45  64 SW5       30.09F
$$

WVZ009-260700-
Northwest West Virginia

CITY           SKY/WX    TMP DP  RH WIND       PRES   REMARKS
PARKERSBURG    MOCLDY    57  54  89 CALM      30.14S
$$

WVZ006-260700-
Western West Virginia

CITY           SKY/WX    TMP DP  RH WIND       PRES   REMARKS
HUNTINGTON     CLEAR     61  55  81 CALM      30.13F
$$

WVZ015-260700-
West Central West Virginia

CITY           SKY/WX    TMP DP  RH WIND       PRES   REMARKS
CHARLESTON     PTCLDY    60  55  83 CALM      30.13F
$$

WVZ022-031-260700-
North Central West Virginia

CITY           SKY/WX    TMP DP  RH WIND       PRES   REMARKS
CLARKSBURG     CLEAR     56  54  93 S3        30.13S
MORGANTOWN     CLOUDY    58  51  78 S3        30.13S
$$

WVZ025-035-042-045-260700-
Southern West Virginia

CITY           SKY/WX    TMP DP  RH WIND       PRES   REMARKS
BECKLEY        PTCLDY    58  47  66 SW5       30.18F
LOGAN            N/A     63  50  63 CALM      30.16S
BLUEFIELD      CLEAR     55  44  66 W6        30.20F
LEWISBURG      CLEAR     53  48  83 CALM      30.17F
$$

WVZ047-260700-
Northern Mountains of West Virginia

CITY           SKY/WX    TMP DP  RH WIND       PRES   REMARKS
ELKINS         PTCLDY    55  49  80 CALM      30.15F
$$

WVZ052-260700-
Eastern Panhandle of West Virginia

CITY           SKY/WX    TMP DP  RH WIND       PRES   REMARKS
MARTINSBURG    CLEAR     67  47  48 W10       30.06S
PETERSBURG     MOCLDY    57  55  92 CALM      30.12S
$$




USA.gov is the U.S. government's official web portal to all federal, state and local government web resources and services.